ARIANE 44LP DEB, 25541

Orbit data source: Space-Track

ARIANE 44LP DEB, 25541 is space debris in HEO originally from a launch on Sun, 11 Dec 1988 UTC launched from the French Guiana (FRGUI). Debris objects in space refer to the collection of defunct objects orbiting the Earth. Examples of debris include non-operational satellites, rocket bodies, and fragments generated from explosions, collisions, or faulty payload assembly.

Loading next visibility...
Identifier
25541, 1988-109H
Orbit
HEO
Country
Flag of FRFR
Related business
Manufacturer
Unknown
Mission
Spacecraft
Bus & Motor
Unknown
Mass
Unknown
Launch date (UTC)
1988-12-11 (37 years ago)
Launch vehicle
Unknown
Launch site
French Guiana (FRGUI)
Object type
Payload
Rocket body
Debris
Shape & HBR
Unknown shape, 1.1 m
Radar Cross Section
Medium (>0.1 m² and <1 m²)

Expand to show TLE details & history
Last TLE update: 12 hours ago

TLE from 12 hours ago
0 ARIANE 44LP DEB
1 25541U 88109H   25310.70411470  .00002324  00000-0  10542-1 0  9992
2 25541   6.8897 257.5365 7092256  17.8077 357.7040  2.40538984232085
Epoch: 2025-11-06T16:53Z
TLE epoch observation values (Epoch: 2025-11-06T16:53:55.510Z)
Latitude
0.00021°
Longitude
-42.01711°
Altitude
604.653 km
Speed
9.86 km/s
True Right ascension
17h 10m 29s
True Declination
0° 00' 01"
Sunlit
Object was in daylight at epoch
Visualization orbit readout
Latitude
Unknown
Longitude
Unknown
Altitude
Unknown
Speed
Unknown
Apparent Right ascension
Unknown
Apparent Declination
Unknown
Sunlit
N/A
Visualization observer readout
Local Sidereal Time
01:04:31
Azimuth
Unknown
Elevation
Unknown
Doppler factor
Unknown
Orbital elements
Apogee altitude
33,847.938 km
Perigee altitude
465.145 km
Semi-major axis
23,534.679 km
Eccentricity
0.70923
Inclination
6.8897°
RAAN
257.5365°
Arg. of periapsis
17.8077°
True anomaly
341.14256°
Mean anomaly
357.704°
Eccentric anomaly
352.16338°
Mean motion
0.60115 °/min
Orbital period
598.86 mins
BSTAR
0.010542
Loading maneuver chart data...
Computing Atmospheric mass density...
Loading historical data...
Loading historical data...
Loading historical data...
Loading historical data...
Loading historical data...
Loading historical data...
Loading historical data...

Documentation

Showing up to 5 results
|